小惑星2006 HY51

2006 HY51

English version
Home page
Total 6,336 html files since Dec. 4, 1995
Updated on December 31, 2006

---------------------------------------------------------------------

・ プロフィール

符号 2006 HY51
発見日 2006年4月26日
発見光度 18.8等
発見者 Lincoln Laboratory Near-Earth Asteroid Research project

・ 軌道要素

The following orbital elements are taken from MPEC 2006-L37:

Epoch 2006 Mar. 6.0 TT = JDT 2453800.5                  MPC
M 331.22397              (2000.0)            P               Q
n   0.23471837     Peri.  340.46395     +0.88989310     -0.30140010
a   2.6027832      Node    42.44929     +0.45598988     +0.56669844
e   0.9690158      Incl.   30.48608     +0.01278675     +0.76681866
P   4.20           H   17.1           G   0.15           U   6
From 149 observations 2006 Apr. 26-June 7, mean residual 0".39.

・ 星図

・ 光度変化

        H = 17.1  G = 0.15

---------------------------------------------------------------------

軌道要素はMPCのEphemerides and Orbital Elementsに掲載されたものです。
星図は StellaNavigator Ver.2.0 for Windows (アストロアーツ 編著 / アスキー出版局刊) で作成したものです。
光度グラフはComet for Windowsで作成したものです。

---------------------------------------------------------------------

Copyright(C) 1995-2008 Seiichi Yoshida (comet@aerith.net). All rights reserved.